Weather History for Jackson, WY

Change the Weather History Date:

Sunday, January 13, 2013

  Actual Average Record
Temperature  
Mean Temperature -8 °F -  
Max Temperature 1 °F 26 °F 51 °F (2009)
Min Temperature -18 °F 1 °F -36 °F (1963)
Degree Days  
Heating Degree Days 74    
Moisture  
Dew Point -14 °F    
Average Humidity 88    
Maximum Humidity 92    
Minimum Humidity 72    
Precipitation  
Precipitation 0.00 in - - ()
Sea Level Pressure  
Sea Level Pressure 29.96 in    
Wind  
Wind Speed 3 mph (NNE)    
Max Wind Speed 9 mph    
Max Gust Speed -    
Visibility 9 miles    
Events      
Averages and records for this station are not official NWS values.
T = Trace of Precipitation, MM = Missing Value Source: NWS Daily Summary

Daily Weather History Graph

Daily Weather History Graph

Search for Another Location

Airport:

Trip Planner

Search our weather history database for the weather conditions in past years. The results will help you decide how hot, cold, wet, or windy it might be!

Date:

Astronomy

Jan. 13, 2013 Rise Set
Actual Time 7:54 AM MST 5:09 PM MST
Civil Twilight 7:22 AM MST 5:41 PM MST
Nautical Twilight 6:46 AM MST 6:17 PM MST
Astronomical Twilight 6:12 AM MST 6:51 PM MST
Moon 8:49 AM MST (1/13) 7:58 PM MST (1/13)
Length of Visible Light 10h 19m
Length of Day
9h 15m
Waxing Crescent, 5% of the Moon is Illuminated
Jan 13
Waxing Crescent
Jan 18
First Quarter
Jan 26
Full
Feb 3
Last Quarter
Feb 10
New

Hourly Weather History & Observations

Time (MST) Temp. Windchill Dew Point Humidity Pressure Visibility Wind Dir Wind Speed Gust Speed Precip Events Conditions
12:15 AM -5.8 °F - -7.6 °F 92% 29.91 in 7.0 mi Calm Calm - N/A   Overcast
12:55 AM -5.8 °F - -7.6 °F 92% 29.92 in 7.0 mi Calm Calm - N/A   Overcast
1:35 AM -5.8 °F -14.5 °F -7.6 °F 92% 29.92 in 9.0 mi NNE 3.5 mph - N/A   Overcast
2:35 AM -7.6 °F -16.5 °F -9.4 °F 92% 29.93 in 7.0 mi NNW 3.5 mph - N/A   Mostly Cloudy
2:55 AM -9.4 °F -18.6 °F -13.0 °F 84% 29.93 in 10.0 mi NNE 3.5 mph - N/A   Mostly Cloudy
3:15 AM -11.2 °F -24.8 °F -13.0 °F 92% 29.93 in 9.0 mi North 5.8 mph - N/A   Overcast
3:35 AM -13.0 °F -30.0 °F -14.8 °F 92% 29.93 in 8.0 mi North 8.1 mph - N/A   Overcast
3:55 AM -14.8 °F -24.8 °F -16.6 °F 92% 29.92 in 10.0 mi NNE 3.5 mph - N/A   Partly Cloudy
4:15 AM -14.8 °F -29.1 °F -16.6 °F 92% 29.92 in 10.0 mi NE 5.8 mph - N/A   Clear
4:35 AM -13.0 °F - -14.8 °F 92% 29.92 in 10.0 mi Calm Calm - N/A   Clear
4:55 AM -13.0 °F -22.7 °F -14.8 °F 92% 29.92 in 1.5 mi NE 3.5 mph - N/A   Mostly Cloudy
5:35 AM -14.8 °F -29.1 °F -16.6 °F 92% 29.92 in 1.8 mi NNE 5.8 mph - N/A   Overcast
5:55 AM -14.8 °F -29.1 °F -16.6 °F 92% 29.93 in 8.0 mi NNE 5.8 mph - N/A   Overcast
6:15 AM -11.2 °F -24.8 °F -14.8 °F 84% 29.94 in 2.5 mi NE 5.8 mph - N/A   Overcast
6:35 AM -9.4 °F -22.7 °F -13.0 °F 84% 29.94 in 3.0 mi NNE 5.8 mph - N/A   Mostly Cloudy
6:53 AM -11.2 °F - -14.8 °F 84% 29.95 in 8.0 mi Calm Calm - N/A   Overcast
6:55 AM -11.2 °F -20.6 °F -14.8 °F 84% 29.95 in 10.0 mi North 3.5 mph - N/A   Overcast
7:53 AM -14.8 °F -27.2 °F -16.6 °F 92% 29.97 in 10.0 mi North 4.6 mph - N/A   Scattered Clouds
8:53 AM -14.8 °F - -16.6 °F 92% 29.99 in 10.0 mi Calm Calm - N/A   Clear
9:59 AM -11.2 °F -23.0 °F -14.8 °F 84% 29.99 in 10.0 mi NNE 4.6 mph - N/A   Clear
10:59 AM -7.6 °F -18.8 °F -11.2 °F 84% 29.99 in 10.0 mi NNE 4.6 mph - N/A   Clear
11:55 AM -5.8 °F -14.5 °F -9.4 °F 84% 29.97 in 10.0 mi East 3.5 mph - N/A   Clear
12:51 PM -2.2 °F - -7.6 °F 78% 29.96 in 10.0 mi Calm Calm - N/A   Clear
1:52 PM -0.4 °F - -7.6 °F 72% 29.96 in 10.0 mi Calm Calm - N/A   Clear
2:55 PM -0.4 °F -8.3 °F -5.8 °F 78% 29.96 in 10.0 mi SE 3.5 mph - N/A   Clear
3:51 PM 1.4 °F - -5.8 °F 72% 29.97 in 10.0 mi Calm Calm - N/A   Clear
4:54 PM -4.0 °F - -7.6 °F 85% 29.98 in 10.0 mi Calm Calm - N/A   Clear
5:56 PM -11.2 °F -20.6 °F -13.0 °F 92% 29.98 in 10.0 mi East 3.5 mph - N/A   Partly Cloudy
6:59 PM -16.6 °F -35.7 °F -18.4 °F 92% 30.00 in 10.0 mi North 9.2 mph - N/A   Clear
8:51 PM -18.4 °F -35.1 °F -22.0 °F 84% 30.00 in 10.0 mi North 6.9 mph - N/A   Clear
8:55 PM -16.6 °F -31.3 °F -18.4 °F 92% 30.00 in 10.0 mi North 5.8 mph - N/A   Overcast
9:15 PM -18.4 °F -36.6 °F -20.2 °F 91% 30.01 in 10.0 mi North 8.1 mph - N/A   Overcast
9:35 PM -14.8 °F -29.1 °F -18.4 °F 84% 30.01 in 10.0 mi NNE 5.8 mph - N/A   Overcast
9:55 PM -14.8 °F -24.8 °F -16.6 °F 92% 30.00 in 10.0 mi NNE 3.5 mph - N/A   Overcast
10:15 PM -16.6 °F -31.3 °F -18.4 °F 92% 30.01 in 10.0 mi North 5.8 mph - N/A   Overcast
10:35 PM -14.8 °F -30.8 °F -16.6 °F 92% 30.01 in 10.0 mi North 6.9 mph - N/A   Overcast
10:55 PM - - - N/A% 30.01 in 10.0 mi North 6.9 mph - N/A   Overcast
11:35 PM -9.4 °F - -13.0 °F 84% 30.01 in 5.0 mi Calm Calm - N/A   Overcast